TimeMST,TemperatureF,Dew PointF,Humidity,Sea Level PressureIn,VisibilityMPH,Wind Direction,Wind SpeedMPH,Gust SpeedMPH,PrecipitationIn,Events,Conditions,WindDirDegrees,DateUTC
12:53 AM,30.9,17.1,57,29.69,10.0,SW,10.4,-,N/A,,Clear,220,2012-12-12 07:53:00
1:53 AM,21.9,14.0,72,29.71,10.0,Calm,Calm,-,N/A,,Clear,0,2012-12-12 08:53:00
2:53 AM,27.0,16.0,63,29.69,10.0,East,5.8,-,N/A,,Clear,80,2012-12-12 09:53:00
3:53 AM,19.0,12.0,74,29.71,10.0,Calm,Calm,-,N/A,,Clear,0,2012-12-12 10:53:00
4:53 AM,28.9,17.1,61,29.67,10.0,SSW,8.1,-,N/A,,Clear,200,2012-12-12 11:53:00
5:53 AM,18.0,10.9,74,29.71,10.0,NW,5.8,-,N/A,,Clear,320,2012-12-12 12:53:00
6:53 AM,18.0,12.9,81,29.71,10.0,NNW,9.2,-,N/A,,Clear,330,2012-12-12 13:53:00
7:53 AM,17.1,12.0,81,29.73,10.0,NNW,8.1,-,N/A,,Clear,330,2012-12-12 14:53:00
8:53 AM,26.1,18.0,71,29.70,10.0,NNW,4.6,-,N/A,,Clear,330,2012-12-12 15:53:00
9:53 AM,32.0,19.0,59,29.68,10.0,NW,6.9,-,N/A,,Clear,310,2012-12-12 16:53:00
10:53 AM,36.0,21.0,55,29.68,10.0,South,4.6,-,N/A,,Clear,180,2012-12-12 17:53:00
11:53 AM,39.9,18.0,41,29.66,10.0,West,6.9,-,N/A,,Clear,260,2012-12-12 18:53:00
12:53 PM,46.9,18.0,32,29.62,10.0,SW,21.9,29.9,N/A,,Clear,230,2012-12-12 19:53:00
1:53 PM,46.0,18.0,33,29.68,10.0,WSW,20.7,28.8,N/A,,Clear,240,2012-12-12 20:53:00
2:53 PM,46.0,15.1,29,29.68,10.0,WSW,23.0,26.5,N/A,,Clear,250,2012-12-12 21:53:00
3:53 PM,43.0,15.1,32,29.77,10.0,WSW,12.7,-,N/A,,Clear,240,2012-12-12 22:53:00
4:53 PM,37.0,15.1,41,29.77,10.0,WSW,11.5,-,N/A,,Clear,240,2012-12-12 23:53:00
5:53 PM,32.0,14.0,48,29.87,10.0,West,9.2,-,N/A,,Clear,260,2012-12-13 00:53:00
6:53 PM,33.1,12.9,43,29.87,10.0,WNW,15.0,-,N/A,,Clear,300,2012-12-13 01:53:00
7:53 PM,33.1,14.0,46,29.89,10.0,West,17.3,-,N/A,,Clear,280,2012-12-13 02:53:00
8:53 PM,30.0,12.0,47,29.88,10.0,West,13.8,-,N/A,,Clear,280,2012-12-13 03:53:00
9:53 PM,28.0,12.0,51,29.88,10.0,WNW,11.5,-,N/A,,Clear,300,2012-12-13 04:53:00
10:53 PM,28.9,12.0,49,29.89,10.0,SSE,4.6,-,N/A,,Clear,160,2012-12-13 05:53:00
11:53 PM,30.0,10.9,45,29.89,10.0,Calm,Calm,-,N/A,,Clear,0,2012-12-13 06:53:00